Year,Month,Day,Hour,Minute,Value (Times are PST for temperature in C)
2008,08,05,00,00,17.90
2008,08,05,00,01,17.90
2008,08,05,00,02,17.90
2008,08,05,00,03,17.80
2008,08,05,00,04,17.80
2008,08,05,00,05,17.70
2008,08,05,00,06,17.70
2008,08,05,00,07,17.70
2008,08,05,00,08,17.60
2008,08,05,00,09,17.60
2008,08,05,00,10,17.60
2008,08,05,00,11,17.60
2008,08,05,00,12,17.60
2008,08,05,00,13,17.50
2008,08,05,00,14,17.50
2008,08,05,00,15,17.50
2008,08,05,00,16,17.40
2008,08,05,00,17,17.40
2008,08,05,00,18,17.30
2008,08,05,00,19,17.30
2008,08,05,00,20,17.30
2008,08,05,00,21,17.30
2008,08,05,00,22,17.30
2008,08,05,00,23,17.30
2008,08,05,00,24,17.20
2008,08,05,00,25,17.20
2008,08,05,00,26,17.20
2008,08,05,00,27,17.20
2008,08,05,00,28,17.10
2008,08,05,00,29,17.10
2008,08,05,00,30,17.10
2008,08,05,00,31,17.10
2008,08,05,00,32,17.00
2008,08,05,00,33,17.00
2008,08,05,00,34,17.00
2008,08,05,00,35,17.00
2008,08,05,00,36,17.00
2008,08,05,00,37,16.90
2008,08,05,00,38,16.90
2008,08,05,00,39,17.00
2008,08,05,00,40,17.00
2008,08,05,00,41,17.00
2008,08,05,00,42,17.00
2008,08,05,00,43,17.00
2008,08,05,00,44,17.00
2008,08,05,00,45,17.00
2008,08,05,00,46,17.00
2008,08,05,00,47,17.00
2008,08,05,00,48,17.00
2008,08,05,00,49,17.00
2008,08,05,00,50,17.00
2008,08,05,00,51,17.00
2008,08,05,00,52,17.00
2008,08,05,00,53,17.00
2008,08,05,00,54,16.90
2008,08,05,00,55,16.90
2008,08,05,00,56,16.90
2008,08,05,00,57,16.90
2008,08,05,00,58,16.80
2008,08,05,00,59,16.90
2008,08,05,01,00,16.90
2008,08,05,01,01,16.90
2008,08,05,01,02,16.90
2008,08,05,01,03,16.90
2008,08,05,01,04,16.90
2008,08,05,01,05,16.90
2008,08,05,01,06,16.90
2008,08,05,01,07,16.90
2008,08,05,01,08,16.90
2008,08,05,01,09,16.90
2008,08,05,01,10,16.90
2008,08,05,01,11,16.90
2008,08,05,01,12,16.80
2008,08,05,01,13,16.80
2008,08,05,01,14,16.80
2008,08,05,01,15,16.70
2008,08,05,01,16,16.70
2008,08,05,01,17,16.70
2008,08,05,01,18,16.70
2008,08,05,01,19,16.70
2008,08,05,01,20,16.60
2008,08,05,01,21,16.60
2008,08,05,01,22,16.50
2008,08,05,01,23,16.40
2008,08,05,01,24,16.40
2008,08,05,01,25,16.40
2008,08,05,01,26,16.40
2008,08,05,01,27,16.40
2008,08,05,01,28,16.40
2008,08,05,01,29,16.40
2008,08,05,01,30,16.40
2008,08,05,01,31,16.40
2008,08,05,01,32,16.40
2008,08,05,01,33,16.40
2008,08,05,01,34,16.40
2008,08,05,01,35,16.40
2008,08,05,01,36,16.40
2008,08,05,01,37,16.40
2008,08,05,01,38,16.40
2008,08,05,01,39,16.30
2008,08,05,01,40,16.30
2008,08,05,01,41,16.30
2008,08,05,01,42,16.30
2008,08,05,01,43,16.30
2008,08,05,01,44,16.30
2008,08,05,01,45,16.30
2008,08,05,01,46,16.30
2008,08,05,01,47,16.20
2008,08,05,01,48,16.20
2008,08,05,01,49,16.20
2008,08,05,01,50,16.20
2008,08,05,01,51,16.20
2008,08,05,01,52,16.20
2008,08,05,01,53,16.20
2008,08,05,01,54,16.20
2008,08,05,01,55,16.10
2008,08,05,01,56,16.10
2008,08,05,01,57,16.10
2008,08,05,01,58,16.10
2008,08,05,01,59,16.10
2008,08,05,02,00,16.10
2008,08,05,02,01,16.10
2008,08,05,02,02,16.10
2008,08,05,02,03,16.00
2008,08,05,02,04,15.90
2008,08,05,02,05,15.90
2008,08,05,02,06,15.90
2008,08,05,02,07,15.80
2008,08,05,02,08,15.80
2008,08,05,02,09,15.80
2008,08,05,02,10,15.80
2008,08,05,02,11,15.80
2008,08,05,02,12,15.80
2008,08,05,02,13,15.80
2008,08,05,02,14,15.70
2008,08,05,02,15,15.70
2008,08,05,02,16,15.70
2008,08,05,02,17,15.70
2008,08,05,02,18,15.70
2008,08,05,02,19,15.70
2008,08,05,02,20,15.70
2008,08,05,02,21,15.70
2008,08,05,02,22,15.70
2008,08,05,02,23,15.70
2008,08,05,02,24,15.70
2008,08,05,02,25,15.70
2008,08,05,02,26,15.80
2008,08,05,02,27,15.80
2008,08,05,02,28,15.80
2008,08,05,02,29,15.80
2008,08,05,02,30,15.80
2008,08,05,02,31,15.80
2008,08,05,02,32,15.80
2008,08,05,02,33,15.80
2008,08,05,02,34,15.80
2008,08,05,02,35,15.80
2008,08,05,02,36,15.80
2008,08,05,02,37,15.80
2008,08,05,02,38,15.80
2008,08,05,02,39,15.90
2008,08,05,02,40,16.00
2008,08,05,02,41,16.10
2008,08,05,02,42,16.10
2008,08,05,02,43,16.10
2008,08,05,02,44,16.10
2008,08,05,02,45,16.10
2008,08,05,02,46,16.10
2008,08,05,02,47,16.10
2008,08,05,02,48,16.10
2008,08,05,02,49,16.10
2008,08,05,02,50,16.10
2008,08,05,02,51,16.00
2008,08,05,02,52,15.90
2008,08,05,02,53,15.90
2008,08,05,02,54,15.90
2008,08,05,02,55,15.90
2008,08,05,02,56,15.90
2008,08,05,02,57,15.90
2008,08,05,02,58,15.90
2008,08,05,02,59,15.80
2008,08,05,03,00,15.80
2008,08,05,03,01,15.80
2008,08,05,03,02,15.80
2008,08,05,03,03,15.80
2008,08,05,03,04,15.90
2008,08,05,03,05,15.90
2008,08,05,03,06,16.00
2008,08,05,03,07,16.10
2008,08,05,03,08,16.20
2008,08,05,03,09,16.30
2008,08,05,03,10,16.40
2008,08,05,03,11,16.50
2008,08,05,03,12,16.60
2008,08,05,03,13,16.70
2008,08,05,03,14,16.70
2008,08,05,03,15,16.80
2008,08,05,03,16,16.80
2008,08,05,03,17,16.90
2008,08,05,03,18,16.90
2008,08,05,03,19,16.90
2008,08,05,03,20,16.90
2008,08,05,03,21,16.90
2008,08,05,03,22,16.90
2008,08,05,03,23,17.00
2008,08,05,03,24,17.00
2008,08,05,03,25,17.00
2008,08,05,03,26,17.00
2008,08,05,03,27,16.90
2008,08,05,03,28,16.90
2008,08,05,03,29,16.90
2008,08,05,03,30,16.90
2008,08,05,03,31,16.90
2008,08,05,03,32,17.00
2008,08,05,03,33,17.00
2008,08,05,03,34,17.00
2008,08,05,03,35,17.00
2008,08,05,03,36,17.00
2008,08,05,03,37,17.00
2008,08,05,03,38,17.00
2008,08,05,03,39,17.00
2008,08,05,03,40,17.10
2008,08,05,03,41,17.10
2008,08,05,03,42,17.10
2008,08,05,03,43,17.00
2008,08,05,03,44,17.00
2008,08,05,03,45,17.00
2008,08,05,03,46,17.00
2008,08,05,03,47,17.00
2008,08,05,03,48,17.00
2008,08,05,03,49,16.90
2008,08,05,03,50,16.90
2008,08,05,03,51,16.90
2008,08,05,03,52,16.90
2008,08,05,03,53,16.80
2008,08,05,03,54,16.80
2008,08,05,03,55,16.80
2008,08,05,03,56,16.70
2008,08,05,03,57,16.70
2008,08,05,03,58,16.70
2008,08,05,03,59,16.60
2008,08,05,04,00,16.60
2008,08,05,04,01,16.50
2008,08,05,04,02,16.40
2008,08,05,04,03,16.40
2008,08,05,04,04,16.40
2008,08,05,04,05,16.40
2008,08,05,04,06,16.40
2008,08,05,04,07,16.30
2008,08,05,04,08,16.30
2008,08,05,04,09,16.30
2008,08,05,04,18,16.10
2008,08,05,04,19,16.10
2008,08,05,04,20,16.10
2008,08,05,04,21,16.10
2008,08,05,04,22,16.10
2008,08,05,04,23,16.10
2008,08,05,04,24,16.10
2008,08,05,04,25,16.10
2008,08,05,04,26,16.20
2008,08,05,04,27,16.20
2008,08,05,04,28,16.20
2008,08,05,04,29,16.30
2008,08,05,04,30,16.30
2008,08,05,04,31,16.30
2008,08,05,04,32,16.30
2008,08,05,04,33,16.30
2008,08,05,04,34,16.30
2008,08,05,04,35,16.40
2008,08,05,04,36,16.40
2008,08,05,04,37,16.40
2008,08,05,04,38,16.40
2008,08,05,04,39,16.40
2008,08,05,04,40,16.30
2008,08,05,04,41,16.30
2008,08,05,04,42,16.30
2008,08,05,04,43,16.30
2008,08,05,04,44,16.30
2008,08,05,04,45,16.20
2008,08,05,04,46,16.20
2008,08,05,04,47,16.20
2008,08,05,04,48,16.20
2008,08,05,04,49,16.10
2008,08,05,04,50,16.10
2008,08,05,04,51,16.10
2008,08,05,04,52,16.10
2008,08,05,04,53,16.10
2008,08,05,04,54,16.00
2008,08,05,04,55,15.90
2008,08,05,04,56,15.90
2008,08,05,04,57,15.90
2008,08,05,04,58,15.90
2008,08,05,04,59,15.90
2008,08,05,05,00,15.90
2008,08,05,05,01,15.80
2008,08,05,05,02,15.80
2008,08,05,05,03,15.80
2008,08,05,05,04,15.80
2008,08,05,05,05,15.80
2008,08,05,05,06,15.80
2008,08,05,05,07,15.80
2008,08,05,05,08,15.80
2008,08,05,05,09,15.80
2008,08,05,05,10,15.80
2008,08,05,05,11,15.80
2008,08,05,05,12,15.90
2008,08,05,05,13,15.90
2008,08,05,05,14,15.90
2008,08,05,05,15,15.90
2008,08,05,05,16,15.90
2008,08,05,05,17,16.00
2008,08,05,05,18,16.00
2008,08,05,05,19,15.90
2008,08,05,05,20,15.90
2008,08,05,05,21,15.90
2008,08,05,05,22,15.90
2008,08,05,05,23,15.90
2008,08,05,05,24,15.80
2008,08,05,05,25,15.80
2008,08,05,05,26,15.80
2008,08,05,05,27,15.80
2008,08,05,05,28,15.80
2008,08,05,05,29,15.80
2008,08,05,05,30,15.80
2008,08,05,05,31,15.70
2008,08,05,05,32,15.70
2008,08,05,05,33,15.60
2008,08,05,05,34,15.60
2008,08,05,05,35,15.60
2008,08,05,05,36,15.50
2008,08,05,05,37,15.50
2008,08,05,05,38,15.50
2008,08,05,05,39,15.50
2008,08,05,05,40,15.40
2008,08,05,05,41,15.40
2008,08,05,05,42,15.40
2008,08,05,05,43,15.30
2008,08,05,05,44,15.30
2008,08,05,05,45,15.30
2008,08,05,05,46,15.30
2008,08,05,05,47,15.30
2008,08,05,05,48,15.30
2008,08,05,05,49,15.30
2008,08,05,05,50,15.30
2008,08,05,05,51,15.30
2008,08,05,05,52,15.30
2008,08,05,05,53,15.30
2008,08,05,05,54,15.30
2008,08,05,05,55,15.30
2008,08,05,05,56,15.30
2008,08,05,05,57,15.30
2008,08,05,05,58,15.30
2008,08,05,05,59,15.30
2008,08,05,06,00,15.30
2008,08,05,06,01,15.30
2008,08,05,06,02,15.30
2008,08,05,06,03,15.30
2008,08,05,06,04,15.30
2008,08,05,06,05,15.30
2008,08,05,06,06,15.30
2008,08,05,06,07,15.30
2008,08,05,06,08,15.20
2008,08,05,06,09,15.20
2008,08,05,06,10,15.20
2008,08,05,06,11,15.20
2008,08,05,06,12,15.20
2008,08,05,06,13,15.20
2008,08,05,06,14,15.20
2008,08,05,06,15,15.20
2008,08,05,06,16,15.20
2008,08,05,06,17,15.20
2008,08,05,06,18,15.20
2008,08,05,06,19,15.20
2008,08,05,06,20,15.30
2008,08,05,06,21,15.30
2008,08,05,06,22,15.30
2008,08,05,06,23,15.30
2008,08,05,06,24,15.30
2008,08,05,06,25,15.40
2008,08,05,06,26,15.40
2008,08,05,06,27,15.40
2008,08,05,06,28,15.50
2008,08,05,06,29,15.50
2008,08,05,06,30,15.50
2008,08,05,06,31,15.50
2008,08,05,06,32,15.50
2008,08,05,06,33,15.60
2008,08,05,06,34,15.60
2008,08,05,06,35,15.60
2008,08,05,06,36,15.70
2008,08,05,06,37,15.70
2008,08,05,06,38,15.70
2008,08,05,06,39,15.80
2008,08,05,06,40,15.80
2008,08,05,06,41,15.80
2008,08,05,06,42,15.90
2008,08,05,06,43,15.90
2008,08,05,06,44,16.00
2008,08,05,06,45,16.10
2008,08,05,06,46,16.10
2008,08,05,06,47,16.10
2008,08,05,06,48,16.20
2008,08,05,06,49,16.20
2008,08,05,06,50,16.20
2008,08,05,06,51,16.30
2008,08,05,06,52,16.30
2008,08,05,06,53,16.30
2008,08,05,06,54,16.40
2008,08,05,06,55,16.40
2008,08,05,06,56,16.40
2008,08,05,06,57,16.50
2008,08,05,06,58,16.60
2008,08,05,06,59,16.70
2008,08,05,07,00,16.80
2008,08,05,07,01,16.90
2008,08,05,07,02,17.00
2008,08,05,07,03,17.10
2008,08,05,07,04,17.10
2008,08,05,07,05,17.20
2008,08,05,07,06,17.20
2008,08,05,07,07,17.20
2008,08,05,07,08,17.20
2008,08,05,07,09,17.20
2008,08,05,07,10,17.10
2008,08,05,07,11,17.00
2008,08,05,07,12,17.00
2008,08,05,07,13,17.00
2008,08,05,07,14,17.00
2008,08,05,07,15,16.90
2008,08,05,07,16,16.90
2008,08,05,07,17,16.90
2008,08,05,07,18,16.90
2008,08,05,07,19,16.90
2008,08,05,07,20,16.80
2008,08,05,07,21,16.80
2008,08,05,07,22,16.80
2008,08,05,07,23,16.90
2008,08,05,07,24,16.90
2008,08,05,07,25,16.90
2008,08,05,07,26,16.90
2008,08,05,07,27,16.90
2008,08,05,07,28,17.00
2008,08,05,07,29,17.00
2008,08,05,07,30,17.00
2008,08,05,07,31,17.10
2008,08,05,07,32,17.10
2008,08,05,07,33,17.10
2008,08,05,07,34,17.10
2008,08,05,07,35,17.20
2008,08,05,07,36,17.20
2008,08,05,07,37,17.20
2008,08,05,07,38,17.20
2008,08,05,07,39,17.20
2008,08,05,07,40,17.20
2008,08,05,07,41,17.30
2008,08,05,07,42,17.30
2008,08,05,07,43,17.30
2008,08,05,07,44,17.30
2008,08,05,07,45,17.30
2008,08,05,07,46,17.30
2008,08,05,07,47,17.40
2008,08,05,07,48,17.40
2008,08,05,07,49,17.40
2008,08,05,07,50,17.50
2008,08,05,07,51,17.50
2008,08,05,07,52,17.60
2008,08,05,07,53,17.70
2008,08,05,07,54,17.70
2008,08,05,07,55,17.70
2008,08,05,07,56,17.80
2008,08,05,07,57,17.80
2008,08,05,07,58,17.90
2008,08,05,07,59,17.90
2008,08,05,08,00,17.90
2008,08,05,08,01,17.90
2008,08,05,08,02,17.90
2008,08,05,08,03,17.90
2008,08,05,08,04,18.00
2008,08,05,08,05,18.10
2008,08,05,08,06,18.10
2008,08,05,08,07,18.10
2008,08,05,08,08,18.20
2008,08,05,08,09,18.20
2008,08,05,08,10,18.20
2008,08,05,08,11,18.20
2008,08,05,08,12,18.30
2008,08,05,08,13,18.30
2008,08,05,08,14,18.40
2008,08,05,08,15,18.40
2008,08,05,08,16,18.40
2008,08,05,08,17,18.50
2008,08,05,08,18,18.50
2008,08,05,08,19,18.50
2008,08,05,08,20,18.50
2008,08,05,08,21,18.60
2008,08,05,08,22,18.60
2008,08,05,08,23,18.60
2008,08,05,08,24,18.60
2008,08,05,08,25,18.70
2008,08,05,08,26,18.70
2008,08,05,08,27,18.70
2008,08,05,08,28,18.70
2008,08,05,08,29,18.80
2008,08,05,08,30,18.80
2008,08,05,08,31,18.90
2008,08,05,08,32,18.90
2008,08,05,08,33,19.00
2008,08,05,08,34,19.10
2008,08,05,08,35,19.10
2008,08,05,08,36,19.10
2008,08,05,08,37,19.10
2008,08,05,08,38,19.10
2008,08,05,08,39,19.10
2008,08,05,08,40,19.10
2008,08,05,08,41,19.10
2008,08,05,08,42,19.10
2008,08,05,08,43,19.10
2008,08,05,08,44,19.10
2008,08,05,08,45,19.10
2008,08,05,08,46,19.10
2008,08,05,08,47,19.10
2008,08,05,08,48,19.10
2008,08,05,08,49,19.10
2008,08,05,08,50,19.10
2008,08,05,08,51,19.10
2008,08,05,08,52,19.10
2008,08,05,08,53,19.10
2008,08,05,08,54,19.10
2008,08,05,08,55,19.10
2008,08,05,08,56,19.10
2008,08,05,08,57,19.10
2008,08,05,08,58,19.10
2008,08,05,08,59,19.10
2008,08,05,09,00,19.10
2008,08,05,09,01,19.10
2008,08,05,09,02,19.20
2008,08,05,09,03,19.30
2008,08,05,09,04,19.40
2008,08,05,09,05,19.40
2008,08,05,09,06,19.40
2008,08,05,09,07,19.50
2008,08,05,09,08,19.50
2008,08,05,09,09,19.50
2008,08,05,09,10,19.60
2008,08,05,09,11,19.60
2008,08,05,09,12,19.70
2008,08,05,09,13,19.80
2008,08,05,09,14,19.80
2008,08,05,09,15,19.80
2008,08,05,09,16,19.80
2008,08,05,09,17,19.80
2008,08,05,09,18,19.80
2008,08,05,09,19,19.70
2008,08,05,09,20,19.70
2008,08,05,09,21,19.70
2008,08,05,09,22,19.70
2008,08,05,09,23,19.70
2008,08,05,09,24,19.80
2008,08,05,09,25,19.80
2008,08,05,09,26,19.80
2008,08,05,09,27,19.80
2008,08,05,09,28,19.80
2008,08,05,09,29,19.80
2008,08,05,09,30,19.80
2008,08,05,09,31,19.80
2008,08,05,09,32,19.80
2008,08,05,09,33,19.90
2008,08,05,09,34,19.90
2008,08,05,09,35,19.90
2008,08,05,09,36,19.90
2008,08,05,09,37,19.90
2008,08,05,09,38,20.00
2008,08,05,09,39,20.10
2008,08,05,09,40,20.10
2008,08,05,09,41,20.20
2008,08,05,09,42,20.20
2008,08,05,09,43,20.20
2008,08,05,09,44,20.20
2008,08,05,09,45,20.20
2008,08,05,09,46,20.20
2008,08,05,09,47,20.20
2008,08,05,09,48,20.20
2008,08,05,09,49,20.20
2008,08,05,09,50,20.20
2008,08,05,09,51,20.20
2008,08,05,09,52,20.20
2008,08,05,09,53,20.20
2008,08,05,09,54,20.20
2008,08,05,09,55,20.20
2008,08,05,09,56,20.30
2008,08,05,09,57,20.40
2008,08,05,09,58,20.50
2008,08,05,09,59,20.60
2008,08,05,10,00,20.60
2008,08,05,10,01,20.70
2008,08,05,10,02,20.60
2008,08,05,10,03,20.50
2008,08,05,10,04,20.50
2008,08,05,10,05,20.40
2008,08,05,10,06,20.30
2008,08,05,10,07,20.30
2008,08,05,10,08,20.30
2008,08,05,10,09,20.30
2008,08,05,10,10,20.30
2008,08,05,10,11,20.10
2008,08,05,10,12,20.00
2008,08,05,10,13,19.90
2008,08,05,10,14,19.90
2008,08,05,10,15,19.90
2008,08,05,10,16,19.80
2008,08,05,10,17,19.80
2008,08,05,10,18,19.80
2008,08,05,10,19,19.90
2008,08,05,10,20,19.90
2008,08,05,10,21,19.90
2008,08,05,10,22,19.90
2008,08,05,10,23,19.80
2008,08,05,10,24,19.80
2008,08,05,10,25,19.70
2008,08,05,10,26,19.70
2008,08,05,10,27,19.70
2008,08,05,10,28,19.80
2008,08,05,10,29,19.80
2008,08,05,10,30,19.90
2008,08,05,10,31,19.90
2008,08,05,10,32,19.90
2008,08,05,10,33,19.90
2008,08,05,10,34,20.00
2008,08,05,10,35,20.10
2008,08,05,10,36,20.20
2008,08,05,10,37,20.20
2008,08,05,10,38,20.20
2008,08,05,10,39,20.20
2008,08,05,10,40,20.20
2008,08,05,10,41,20.20
2008,08,05,10,42,20.20
2008,08,05,10,43,20.30
2008,08,05,10,44,20.30
2008,08,05,10,45,20.50
2008,08,05,10,46,20.50
2008,08,05,10,47,20.50
2008,08,05,10,48,20.50
2008,08,05,10,49,20.60
2008,08,05,10,50,20.70
2008,08,05,10,51,20.70
2008,08,05,10,52,20.80
2008,08,05,10,53,20.80
2008,08,05,10,54,20.80
2008,08,05,10,55,20.80
2008,08,05,10,56,20.80
2008,08,05,10,57,20.70
2008,08,05,10,58,20.60
2008,08,05,10,59,20.60
2008,08,05,11,00,20.50
2008,08,05,11,01,20.50
2008,08,05,11,02,20.50
2008,08,05,11,03,20.50
2008,08,05,11,04,20.50
2008,08,05,11,05,20.50
2008,08,05,11,06,20.50
2008,08,05,11,07,20.50
2008,08,05,11,08,20.60
2008,08,05,11,09,20.60
2008,08,05,11,10,20.60
2008,08,05,11,11,20.60
2008,08,05,11,12,20.60
2008,08,05,11,13,20.60
2008,08,05,11,14,20.60
2008,08,05,11,15,20.60
2008,08,05,11,16,20.60
2008,08,05,11,17,20.60
2008,08,05,11,18,20.70
2008,08,05,11,19,20.70
2008,08,05,11,20,20.60
2008,08,05,11,21,20.70
2008,08,05,11,22,20.80
2008,08,05,11,23,20.80
2008,08,05,11,24,20.90
2008,08,05,11,25,21.00
2008,08,05,11,26,21.00
2008,08,05,11,27,21.10
2008,08,05,11,28,21.20
2008,08,05,11,29,21.30
2008,08,05,11,30,21.30
2008,08,05,11,31,21.40
2008,08,05,11,32,21.40
2008,08,05,11,33,21.30
2008,08,05,11,34,21.30
2008,08,05,11,35,21.40
2008,08,05,11,36,21.50
2008,08,05,11,37,21.60
2008,08,05,11,38,21.60
2008,08,05,11,39,21.70
2008,08,05,11,40,21.70
2008,08,05,11,41,21.80
2008,08,05,11,42,21.90
2008,08,05,11,43,22.00
2008,08,05,11,44,22.00
2008,08,05,11,45,21.90
2008,08,05,11,46,21.90
2008,08,05,11,47,21.90
2008,08,05,11,48,21.80
2008,08,05,11,49,21.90
2008,08,05,11,50,21.90
2008,08,05,11,51,22.00
2008,08,05,11,52,22.00
2008,08,05,11,53,22.10
2008,08,05,11,54,22.10
2008,08,05,11,55,22.10
2008,08,05,11,56,22.10
2008,08,05,11,57,22.00
2008,08,05,11,58,21.90
2008,08,05,11,59,21.70
2008,08,05,12,00,21.60
2008,08,05,12,01,21.60
2008,08,05,12,02,21.60
2008,08,05,12,03,21.70
2008,08,05,12,04,21.70
2008,08,05,12,05,21.80
2008,08,05,12,06,21.90
2008,08,05,12,07,21.90
2008,08,05,12,08,22.00
2008,08,05,12,09,22.00
2008,08,05,12,10,22.00
2008,08,05,12,11,22.00
2008,08,05,12,12,22.00
2008,08,05,12,13,22.00
2008,08,05,12,14,22.00
2008,08,05,12,15,22.00
2008,08,05,12,16,21.90
2008,08,05,12,17,22.00
2008,08,05,12,18,22.00
2008,08,05,12,19,22.10
2008,08,05,12,20,22.10
2008,08,05,12,21,22.20
2008,08,05,12,22,22.20
2008,08,05,12,23,22.30
2008,08,05,12,24,22.40
2008,08,05,12,25,22.40
2008,08,05,12,26,22.50
2008,08,05,12,27,22.60
2008,08,05,12,28,22.60
2008,08,05,12,29,22.70
2008,08,05,12,30,22.80
2008,08,05,12,31,22.90
2008,08,05,12,32,22.90
2008,08,05,12,33,22.80
2008,08,05,12,34,22.70
2008,08,05,12,35,22.60
2008,08,05,12,36,22.50
2008,08,05,12,37,22.50
2008,08,05,12,38,22.50
2008,08,05,12,39,22.50
2008,08,05,12,40,22.50
2008,08,05,12,41,22.50
2008,08,05,12,42,22.50
2008,08,05,12,43,22.50
2008,08,05,12,44,22.50
2008,08,05,12,45,22.60
2008,08,05,12,46,22.70
2008,08,05,12,47,22.70
2008,08,05,12,48,22.80
2008,08,05,12,49,22.80
2008,08,05,12,50,22.90
2008,08,05,12,51,22.90
2008,08,05,12,52,22.90
2008,08,05,12,53,22.80
2008,08,05,12,54,22.80
2008,08,05,12,55,22.80
2008,08,05,12,56,22.70
2008,08,05,12,57,22.70
2008,08,05,12,58,22.70
2008,08,05,12,59,22.70
2008,08,05,13,00,22.70
2008,08,05,13,01,22.70
2008,08,05,13,02,22.70
2008,08,05,13,03,22.70
2008,08,05,13,04,22.70
2008,08,05,13,05,22.70
2008,08,05,13,06,22.70
2008,08,05,13,07,22.70
2008,08,05,13,08,22.70
2008,08,05,13,09,22.70
2008,08,05,13,10,22.70
2008,08,05,13,11,22.70
2008,08,05,13,12,22.80
2008,08,05,13,13,22.80
2008,08,05,13,14,22.90
2008,08,05,13,15,22.90
2008,08,05,13,16,22.80
2008,08,05,13,17,22.80
2008,08,05,13,18,22.90
2008,08,05,13,19,22.90
2008,08,05,13,20,22.90
2008,08,05,13,21,22.90
2008,08,05,13,22,22.90
2008,08,05,13,23,22.90
2008,08,05,13,24,23.00
2008,08,05,13,25,23.10
2008,08,05,13,26,23.10
2008,08,05,13,27,23.10
2008,08,05,13,28,23.20
2008,08,05,13,29,23.30
2008,08,05,13,30,23.30
2008,08,05,13,31,23.30
2008,08,05,13,32,23.40
2008,08,05,13,33,23.40
2008,08,05,13,34,23.40
2008,08,05,13,35,23.30
2008,08,05,13,36,23.20
2008,08,05,13,37,23.20
2008,08,05,13,38,23.20
2008,08,05,13,39,23.20
2008,08,05,13,40,23.30
2008,08,05,13,41,23.40
2008,08,05,13,42,23.50
2008,08,05,13,43,23.60
2008,08,05,13,44,23.60
2008,08,05,13,45,23.60
2008,08,05,13,46,23.60
2008,08,05,13,47,23.70
2008,08,05,13,48,23.70
2008,08,05,13,49,23.80
2008,08,05,13,50,23.90
2008,08,05,13,51,23.90
2008,08,05,13,52,23.90
2008,08,05,13,53,24.10
2008,08,05,13,54,24.10
2008,08,05,13,55,24.00
2008,08,05,13,56,23.90
2008,08,05,13,57,23.70
2008,08,05,13,58,23.70
2008,08,05,13,59,23.70
2008,08,05,14,00,23.80
2008,08,05,14,01,23.80
2008,08,05,14,02,23.80
2008,08,05,14,03,23.80
2008,08,05,14,04,23.80
2008,08,05,14,05,23.90
2008,08,05,14,06,23.90
2008,08,05,14,07,23.80
2008,08,05,14,08,23.90
2008,08,05,14,09,24.00
2008,08,05,14,10,24.10
2008,08,05,14,11,24.20
2008,08,05,14,12,24.20
2008,08,05,14,13,24.30
2008,08,05,14,14,24.50
2008,08,05,14,15,24.50
2008,08,05,14,16,24.60
2008,08,05,14,17,24.60
2008,08,05,14,18,24.60
2008,08,05,14,19,24.60
2008,08,05,14,20,24.50
2008,08,05,14,21,24.60
2008,08,05,14,22,24.70
2008,08,05,14,23,24.70
2008,08,05,14,24,24.80
2008,08,05,14,25,24.80
2008,08,05,14,26,24.80
2008,08,05,14,27,24.70
2008,08,05,14,28,24.80
2008,08,05,14,29,24.80
2008,08,05,14,30,24.70
2008,08,05,14,31,24.60
2008,08,05,14,32,24.60
2008,08,05,14,33,24.60
2008,08,05,14,34,24.70
2008,08,05,14,35,24.80
2008,08,05,14,36,24.80
2008,08,05,14,37,24.90
2008,08,05,14,38,24.80
2008,08,05,14,39,24.80
2008,08,05,14,40,24.80
2008,08,05,14,41,24.70
2008,08,05,14,42,24.70
2008,08,05,14,43,24.70
2008,08,05,14,44,24.60
2008,08,05,14,45,24.50
2008,08,05,14,46,24.50
2008,08,05,14,47,24.50
2008,08,05,14,48,24.50
2008,08,05,14,49,24.50
2008,08,05,14,50,24.50
2008,08,05,14,51,24.50
2008,08,05,14,52,24.50
2008,08,05,14,53,24.50
2008,08,05,14,54,24.70
2008,08,05,14,55,24.70
2008,08,05,14,56,24.70
2008,08,05,14,57,24.60
2008,08,05,14,58,24.60
2008,08,05,14,59,24.70
2008,08,05,15,00,24.70
2008,08,05,15,01,24.70
2008,08,05,15,02,24.70
2008,08,05,15,03,24.70
2008,08,05,15,04,24.70
2008,08,05,15,05,24.70
2008,08,05,15,06,24.80
2008,08,05,15,07,24.80
2008,08,05,15,08,24.90
2008,08,05,15,09,25.00
2008,08,05,15,10,25.00
2008,08,05,15,11,25.10
2008,08,05,15,12,25.10
2008,08,05,15,13,25.10
2008,08,05,15,14,25.10
2008,08,05,15,15,25.00
2008,08,05,15,16,25.00
2008,08,05,15,17,25.00
2008,08,05,15,18,25.00
2008,08,05,15,19,25.00
2008,08,05,15,20,25.00
2008,08,05,15,21,25.00
2008,08,05,15,22,25.00
2008,08,05,15,23,25.10
2008,08,05,15,24,25.10
2008,08,05,15,25,25.20
2008,08,05,15,26,25.20
2008,08,05,15,27,25.10
2008,08,05,15,28,25.20
2008,08,05,15,29,25.10
2008,08,05,15,30,25.10
2008,08,05,15,31,25.10
2008,08,05,15,32,25.20
2008,08,05,15,33,25.30
2008,08,05,15,34,25.30
2008,08,05,15,35,25.30
2008,08,05,15,36,25.30
2008,08,05,15,37,25.30
2008,08,05,15,38,25.30
2008,08,05,15,39,25.30
2008,08,05,15,40,25.30
2008,08,05,15,41,25.30
2008,08,05,15,42,25.30
2008,08,05,15,43,25.40
2008,08,05,15,44,25.40
2008,08,05,15,45,25.40
2008,08,05,15,46,25.40
2008,08,05,15,47,25.50
2008,08,05,15,48,25.50
2008,08,05,15,49,25.70
2008,08,05,15,50,25.80
2008,08,05,15,51,25.90
2008,08,05,15,52,25.90
2008,08,05,15,53,25.80
2008,08,05,15,54,25.80
2008,08,05,15,55,25.80
2008,08,05,15,56,25.80
2008,08,05,15,57,25.90
2008,08,05,15,58,25.90
2008,08,05,15,59,25.90
2008,08,05,16,00,25.90
2008,08,05,16,01,25.90
2008,08,05,16,02,25.90
2008,08,05,16,03,26.00
2008,08,05,16,04,26.10
2008,08,05,16,05,26.10
2008,08,05,16,06,26.10
2008,08,05,16,07,26.10
2008,08,05,16,08,26.00
2008,08,05,16,09,26.00
2008,08,05,16,10,26.00
2008,08,05,16,11,26.00
2008,08,05,16,12,26.00
2008,08,05,16,13,26.00
2008,08,05,16,14,25.90
2008,08,05,16,15,25.90
2008,08,05,16,16,26.00
2008,08,05,16,17,26.00
2008,08,05,16,18,25.90
2008,08,05,16,19,25.90
2008,08,05,16,20,26.00
2008,08,05,16,21,26.00
2008,08,05,16,22,26.00
2008,08,05,16,23,26.10
2008,08,05,16,24,26.10
2008,08,05,16,25,26.10
2008,08,05,16,26,26.10
2008,08,05,16,27,26.10
2008,08,05,16,28,26.10
2008,08,05,16,29,26.20
2008,08,05,16,30,26.20
2008,08,05,16,31,26.20
2008,08,05,16,32,26.20
2008,08,05,16,33,26.10
2008,08,05,16,34,26.10
2008,08,05,16,35,26.10
2008,08,05,16,36,26.10
2008,08,05,16,37,26.10
2008,08,05,16,38,26.10
2008,08,05,16,39,26.20
2008,08,05,16,40,26.20
2008,08,05,16,41,26.20
2008,08,05,16,42,26.20
2008,08,05,16,43,26.30
2008,08,05,16,44,26.30
2008,08,05,16,45,26.30
2008,08,05,16,46,26.30
2008,08,05,16,47,26.20
2008,08,05,16,48,26.20
2008,08,05,16,49,26.20
2008,08,05,16,50,26.20
2008,08,05,16,51,26.20
2008,08,05,16,52,26.20
2008,08,05,16,53,26.20
2008,08,05,16,54,26.20
2008,08,05,16,55,26.30
2008,08,05,16,56,26.30
2008,08,05,16,57,26.30
2008,08,05,16,58,26.30
2008,08,05,16,59,26.40
2008,08,05,17,00,26.40
2008,08,05,17,01,26.50
2008,08,05,17,02,26.60
2008,08,05,17,03,26.60
2008,08,05,17,04,26.50
2008,08,05,17,05,26.40
2008,08,05,17,06,26.40
2008,08,05,17,07,26.50
2008,08,05,17,08,26.60
2008,08,05,17,09,26.60
2008,08,05,17,10,26.60
2008,08,05,17,11,26.60
2008,08,05,17,12,26.60
2008,08,05,17,13,26.60
2008,08,05,17,14,26.60
2008,08,05,17,15,26.60
2008,08,05,17,16,26.70
2008,08,05,17,17,26.70
2008,08,05,17,18,26.80
2008,08,05,17,19,26.80
2008,08,05,17,20,26.80
2008,08,05,17,21,26.70
2008,08,05,17,22,26.70
2008,08,05,17,23,26.60
2008,08,05,17,24,26.60
2008,08,05,17,25,26.60
2008,08,05,17,26,26.60
2008,08,05,17,27,26.60